DAL1556 KLAX-PHOG

Flight info

Callsign DAL1556
Flight time N/A
Altitude 30000
Route SUMMR2 DINTY DUETS/N0470F320 R576 DIALO/N0467F340 R576 DENNS LNDHY1
Aircraft B739/M-SDE2E3FGHIRWXY/LB1

Departure

Time 2026-04-25 16:41
Airport Los Angeles International Airport (KLAX)

Arrival

Time N/A
Airport Kahului International Airport (PHOG)
Time Latitude Longitude Altitude Speed Heading
2026-04-25 15:40 33.94671 -118.40846 125 ft 0 kts 119°
2026-04-25 16:31 33.94681 -118.40869 119 ft 4 kts 112°
2026-04-25 16:31 33.94687 -118.40898 120 ft 4 kts 77°
2026-04-25 16:32 33.94682 -118.40910 119 ft 2 kts 354°
2026-04-25 16:32 33.94681 -118.40910 119 ft 1 kts 353°
2026-04-25 16:36 33.94699 -118.40913 121 ft 6 kts 353°
2026-04-25 16:36 33.94715 -118.40914 123 ft 8 kts 356°
2026-04-25 16:36 33.94825 -118.40874 120 ft 10 kts 40°
2026-04-25 16:36 33.94846 -118.40788 125 ft 11 kts 82°
2026-04-25 16:37 33.94856 -118.40697 125 ft 11 kts 83°
2026-04-25 16:37 33.94866 -118.40602 125 ft 14 kts 83°
2026-04-25 16:37 33.94879 -118.40478 123 ft 15 kts 83°
2026-04-25 16:37 33.94892 -118.40357 121 ft 14 kts 83°
2026-04-25 16:38 33.94903 -118.40240 123 ft 14 kts 83°
2026-04-25 16:38 33.94913 -118.40129 124 ft 13 kts 83°
2026-04-25 16:38 33.94924 -118.40022 125 ft 13 kts 83°
2026-04-25 16:38 33.94953 -118.39927 121 ft 12 kts 38°
2026-04-25 16:39 33.95032 -118.39929 124 ft 12 kts 317°
2026-04-25 16:39 33.95039 -118.39972 124 ft 0 kts 263°
2026-04-25 16:40 33.95039 -118.39974 125 ft 1 kts 263°
2026-04-25 16:40 33.95027 -118.40104 125 ft 47 kts 263°
2026-04-25 16:40 33.94957 -118.40783 125 ft 114 kts 263°
2026-04-25 16:40 33.94833 -118.41963 126 ft 167 kts 262°
2026-04-25 16:41 33.94704 -118.43431 584 ft 179 kts 264°
2026-04-25 16:41 33.94668 -118.43937 811 ft 182 kts 263°
2026-04-25 16:41 33.94347 -118.48272 2273 ft 213 kts 265°
2026-04-25 16:42 33.94272 -118.50143 2425 ft 233 kts 265°
2026-04-25 16:42 33.94146 -118.52122 2807 ft 241 kts 263°
2026-04-25 16:42 33.93981 -118.54160 3180 ft 253 kts 263°
2026-04-25 16:42 33.93803 -118.56331 3622 ft 264 kts 263°
2026-04-25 16:43 33.93629 -118.58515 4476 ft 260 kts 264°
2026-04-25 16:43 33.93459 -118.60668 5165 ft 263 kts 264°
2026-04-25 16:43 33.93286 -118.62864 5889 ft 263 kts 264°
2026-04-25 16:43 33.93113 -118.65068 6563 ft 266 kts 265°
2026-04-25 16:44 33.92940 -118.67297 7218 ft 267 kts 264°
2026-04-25 16:44 33.92767 -118.69527 7887 ft 268 kts 264°
2026-04-25 16:44 33.92594 -118.71769 8531 ft 270 kts 264°
2026-04-25 16:44 33.92419 -118.74021 9185 ft 271 kts 264°
2026-04-25 16:45 33.92242 -118.76290 9831 ft 273 kts 264°
2026-04-25 16:45 33.92063 -118.78577 10329 ft 279 kts 264°
2026-04-25 16:45 33.91874 -118.80986 10473 ft 298 kts 264°
2026-04-25 16:45 33.91686 -118.83552 10626 ft 317 kts 267°
2026-04-25 16:46 33.91697 -118.86274 10763 ft 334 kts 271°
2026-04-25 16:46 33.91818 -118.89144 10892 ft 351 kts 272°
2026-04-25 16:46 33.91944 -118.92145 11022 ft 367 kts 271°
2026-04-25 16:46 33.91981 -118.93146 11079 ft 371 kts 271°
2026-04-25 16:47 33.92196 -118.98378 11787 ft 379 kts 276°
2026-04-25 16:47 33.92757 -119.01480 12346 ft 381 kts 285°
2026-04-25 16:47 33.93702 -119.04478 12859 ft 385 kts 293°
2026-04-25 16:47 33.95052 -119.07282 13335 ft 390 kts 299°
2026-04-25 16:48 33.96528 -119.10042 13795 ft 392 kts 299°
2026-04-25 16:48 33.97995 -119.12823 14211 ft 394 kts 298°
2026-04-25 16:48 33.99457 -119.15627 14651 ft 395 kts 299°
2026-04-25 16:48 34.01140 -119.18271 15070 ft 401 kts 308°
2026-04-25 16:49 34.03170 -119.20606 15491 ft 408 kts 317°
2026-04-25 16:49 34.05481 -119.22626 15920 ft 411 kts 320°
2026-04-25 16:49 34.07836 -119.24610 16309 ft 413 kts 320°
2026-04-25 16:49 34.10206 -119.26605 16671 ft 416 kts 320°
2026-04-25 16:50 34.12546 -119.28588 17051 ft 417 kts 320°
2026-04-25 16:50 34.14920 -119.30613 17434 ft 419 kts 319°
2026-04-25 16:50 34.17334 -119.32685 17816 ft 421 kts 319°
2026-04-25 16:50 34.19691 -119.34714 18180 ft 422 kts 319°
2026-04-25 16:51 34.22090 -119.36785 18499 ft 424 kts 319°
2026-04-25 16:51 34.24496 -119.38864 18809 ft 425 kts 319°
2026-04-25 16:51 34.26902 -119.40943 19135 ft 426 kts 319°
2026-04-25 16:51 34.27722 -119.41652 19242 ft 427 kts 319°
2026-04-25 16:52 34.31745 -119.45132 19759 ft 429 kts 318°
2026-04-25 16:52 34.34177 -119.47238 20064 ft 430 kts 318°
2026-04-25 16:52 34.36610 -119.49358 20370 ft 430 kts 316°
2026-04-25 16:52 34.38654 -119.51912 20627 ft 418 kts 298°
2026-04-25 16:53 34.40626 -119.58330 21303 ft 405 kts 274°
2026-04-25 16:53 34.40643 -119.61720 21587 ft 403 kts 264°
2026-04-25 16:53 34.40408 -119.65108 21891 ft 404 kts 264°
2026-04-25 16:54 34.40139 -119.68493 22193 ft 404 kts 263°
2026-04-25 16:54 34.39870 -119.71842 22473 ft 405 kts 263°
2026-04-25 16:54 34.39604 -119.75241 22746 ft 406 kts 264°
2026-04-25 16:54 34.39346 -119.78658 23010 ft 407 kts 264°
2026-04-25 16:55 34.39096 -119.82072 23295 ft 407 kts 264°
2026-04-25 16:55 34.38849 -119.85484 23556 ft 408 kts 264°
2026-04-25 16:55 34.38603 -119.88919 23753 ft 409 kts 264°
2026-04-25 16:55 34.38357 -119.92351 23933 ft 410 kts 264°
2026-04-25 16:56 34.38110 -119.95792 24152 ft 411 kts 264°
2026-04-25 16:56 34.37861 -119.99239 24360 ft 411 kts 264°
2026-04-25 16:56 34.37610 -120.02705 24553 ft 412 kts 264°
2026-04-25 16:56 34.37362 -120.06118 24746 ft 413 kts 264°
2026-04-25 16:57 34.37109 -120.09584 24967 ft 413 kts 264°
2026-04-25 16:57 34.37023 -120.10761 25040 ft 414 kts 264°
2026-04-25 16:57 34.36597 -120.16540 25379 ft 416 kts 264°
2026-04-25 16:57 34.36339 -120.20030 25584 ft 416 kts 264°
2026-04-25 16:58 34.36081 -120.23509 25853 ft 415 kts 264°
2026-04-25 16:58 34.35823 -120.26982 26142 ft 413 kts 264°
2026-04-25 16:58 34.35564 -120.30437 26441 ft 411 kts 264°
2026-04-25 16:58 34.35306 -120.33877 26737 ft 410 kts 264°
2026-04-25 16:59 34.35048 -120.37308 27055 ft 408 kts 264°
2026-04-25 16:59 34.34790 -120.40719 27356 ft 407 kts 264°
2026-04-25 16:59 34.34453 -120.44107 27645 ft 405 kts 259°
2026-04-25 16:59 34.34045 -120.46309 27842 ft 405 kts 256°
2026-04-25 17:00 34.33194 -120.49546 28156 ft 404 kts 250°
2026-04-25 17:00 34.31620 -120.53626 28573 ft 403 kts 246°
2026-04-25 17:00 34.30397 -120.56674 28873 ft 402 kts 246°
2026-04-25 17:00 34.29178 -120.59723 29156 ft 402 kts 246°
2026-04-25 17:01 34.28357 -120.61783 29339 ft 402 kts 246°
2026-04-25 17:01 34.27149 -120.64822 29588 ft 402 kts 247°
2026-04-25 17:01 34.25940 -120.67866 29879 ft 401 kts 247°
2026-04-25 17:01 34.24753 -120.70858 30006 ft 401 kts 247°
2026-04-25 17:02 34.23547 -120.73897 30022 ft 400 kts 247°
2026-04-25 17:02 34.21134 -120.79970 30022 ft 400 kts 247°
2026-04-25 17:03 34.18730 -120.86014 30016 ft 399 kts 247°
2026-04-25 17:03 34.16320 -120.92059 30015 ft 399 kts 247°
2026-04-25 17:04 34.13910 -120.98106 30180 ft 401 kts 243°
2026-04-25 17:04 34.11462 -121.04223 30069 ft 408 kts 243°
2026-04-25 17:05 34.09000 -121.10358 30028 ft 408 kts 243°
2026-04-25 17:05 34.05291 -121.19588 30026 ft 407 kts 242°
2026-04-25 17:06 34.02822 -121.25718 30020 ft 406 kts 242°
2026-04-25 17:06 34.00353 -121.31839 30023 ft 406 kts 242°
2026-04-25 17:07 33.97880 -121.37959 30023 ft 405 kts 242°
2026-04-25 17:07 33.95407 -121.44067 30028 ft 405 kts 242°
2026-04-25 17:08 33.92949 -121.50129 30022 ft 406 kts 242°
2026-04-25 17:08 33.90468 -121.56234 30028 ft 406 kts 242°
2026-04-25 17:09 33.87985 -121.62335 30021 ft 406 kts 242°
2026-04-25 17:09 33.85497 -121.68435 30021 ft 406 kts 242°
2026-04-25 17:10 33.83005 -121.74536 30027 ft 406 kts 242°
2026-04-25 17:10 33.80509 -121.80636 30020 ft 406 kts 242°
2026-04-25 17:11 33.78009 -121.86733 30017 ft 406 kts 242°
2026-04-25 17:11 33.75510 -121.92820 30026 ft 406 kts 242°
2026-04-25 17:12 33.73024 -121.98862 30028 ft 406 kts 242°
2026-04-25 17:12 33.70520 -122.04938 30029 ft 406 kts 241°
2026-04-25 17:13 33.68437 -122.09984 30029 ft 406 kts 241°
2026-04-25 17:13 33.65505 -122.17076 30034 ft 405 kts 241°
2026-04-25 17:14 33.62993 -122.23139 30036 ft 406 kts 241°
2026-04-25 17:14 33.60478 -122.29198 30031 ft 406 kts 241°
2026-04-25 17:15 33.57963 -122.35249 30033 ft 405 kts 241°
2026-04-25 17:15 33.55461 -122.41256 30036 ft 404 kts 241°
2026-04-25 17:16 33.52946 -122.47287 30038 ft 404 kts 241°
2026-04-25 17:16 33.50430 -122.53308 30041 ft 404 kts 241°
2026-04-25 17:17 33.48096 -122.59429 30035 ft 406 kts 248°
2026-04-25 17:17 33.46703 -122.66018 30038 ft 408 kts 252°
2026-04-25 17:18 33.45368 -122.72616 30037 ft 407 kts 252°
2026-04-25 17:18 33.44014 -122.79207 30033 ft 407 kts 251°
2026-04-25 17:19 33.42663 -122.85738 30037 ft 406 kts 251°
2026-04-25 17:19 33.41300 -122.92303 30040 ft 406 kts 251°
2026-04-25 17:20 33.39934 -122.98867 30041 ft 406 kts 251°
2026-04-25 17:20 33.38567 -123.05412 30044 ft 405 kts 251°
2026-04-25 17:21 33.37198 -123.11953 30042 ft 405 kts 251°
2026-04-25 17:21 33.35825 -123.18490 30052 ft 405 kts 251°
2026-04-25 17:22 33.34680 -123.23930 30069 ft 408 kts 251°
2026-04-25 17:22 33.33750 -123.28337 30312 ft 408 kts 251°
2026-04-25 17:22 33.33057 -123.31619 30582 ft 406 kts 251°
2026-04-25 17:23 33.32364 -123.34898 30792 ft 406 kts 251°
2026-04-25 17:23 33.31670 -123.38175 30962 ft 407 kts 251°
2026-04-25 17:23 33.30974 -123.41457 31191 ft 406 kts 251°
2026-04-25 17:23 33.30279 -123.44730 31442 ft 405 kts 251°
2026-04-25 17:24 33.29585 -123.47990 31684 ft 404 kts 251°
2026-04-25 17:24 33.28891 -123.51250 31898 ft 404 kts 251°
2026-04-25 17:24 33.28199 -123.54493 32025 ft 403 kts 251°
2026-04-25 17:24 33.27513 -123.57706 32036 ft 404 kts 251°
2026-04-25 17:25 33.26115 -123.64230 32051 ft 406 kts 251°
2026-04-25 17:25 33.24709 -123.70779 32054 ft 406 kts 251°
2026-04-25 17:26 33.23302 -123.77321 32051 ft 407 kts 251°
2026-04-25 17:26 33.21887 -123.83874 32051 ft 407 kts 251°
2026-04-25 17:27 33.20480 -123.90379 32047 ft 407 kts 251°
2026-04-25 17:27 33.19530 -123.94758 32047 ft 407 kts 251°
2026-04-25 17:28 33.17635 -124.03470 32050 ft 407 kts 251°
2026-04-25 17:28 33.16208 -124.10008 32052 ft 407 kts 251°
2026-04-25 17:29 33.14774 -124.16561 32055 ft 407 kts 251°
2026-04-25 17:29 33.13340 -124.23101 32052 ft 407 kts 251°
2026-04-25 17:30 33.11902 -124.29636 32055 ft 408 kts 251°
2026-04-25 17:30 33.10470 -124.36132 32052 ft 408 kts 251°
2026-04-25 17:31 33.09023 -124.42675 32057 ft 408 kts 251°
2026-04-25 17:31 33.07572 -124.49224 32056 ft 408 kts 251°
2026-04-25 17:32 33.06113 -124.55776 32056 ft 409 kts 251°
2026-04-25 17:32 33.04648 -124.62318 32062 ft 409 kts 251°
2026-04-25 17:33 33.03177 -124.68869 32056 ft 409 kts 252°
2026-04-25 17:33 33.01702 -124.75429 32062 ft 410 kts 252°
2026-04-25 17:34 33.00222 -124.81995 32057 ft 411 kts 252°
2026-04-25 17:34 32.98735 -124.88575 32066 ft 411 kts 252°
2026-04-25 17:35 32.97253 -124.95117 32063 ft 412 kts 252°
2026-04-25 17:35 32.95755 -125.01713 32062 ft 413 kts 252°
2026-04-25 17:36 32.94252 -125.08310 32059 ft 413 kts 252°
2026-04-25 17:36 32.92743 -125.14919 32062 ft 414 kts 252°
2026-04-25 17:37 32.91229 -125.21532 32062 ft 414 kts 252°
2026-04-25 17:37 32.89710 -125.28148 32064 ft 415 kts 252°
2026-04-25 17:38 32.88690 -125.32579 32061 ft 415 kts 252°
2026-04-25 17:38 32.86657 -125.41391 32064 ft 415 kts 252°
2026-04-25 17:39 32.85125 -125.48013 32065 ft 416 kts 252°
2026-04-25 17:39 32.83582 -125.54660 32071 ft 416 kts 253°
2026-04-25 17:40 32.82038 -125.61300 32069 ft 417 kts 253°
2026-04-25 17:40 32.80488 -125.67946 32069 ft 418 kts 253°
2026-04-25 17:41 32.78940 -125.74566 32073 ft 418 kts 253°
2026-04-25 17:41 32.77378 -125.81228 32071 ft 419 kts 253°
2026-04-25 17:42 32.75809 -125.87900 32073 ft 419 kts 253°
2026-04-25 17:42 32.74237 -125.94570 32073 ft 420 kts 253°
2026-04-25 17:43 32.72658 -126.01255 32075 ft 420 kts 253°
2026-04-25 17:43 32.71075 -126.07937 32076 ft 421 kts 253°
2026-04-25 17:44 32.69487 -126.14620 32079 ft 421 kts 253°
2026-04-25 17:44 32.67893 -126.21314 32075 ft 421 kts 253°
2026-04-25 17:45 32.66826 -126.25786 32073 ft 421 kts 253°
2026-04-25 17:45 32.64693 -126.34699 32079 ft 422 kts 253°
2026-04-25 17:46 32.63083 -126.41409 32075 ft 422 kts 254°
2026-04-25 17:46 32.61479 -126.48075 32079 ft 423 kts 254°
2026-04-25 17:47 32.59860 -126.54787 32079 ft 423 kts 254°
2026-04-25 17:47 32.58236 -126.61504 32078 ft 424 kts 254°
2026-04-25 17:48 32.56067 -126.70447 32081 ft 424 kts 254°
2026-04-25 17:49 32.54429 -126.77177 32085 ft 425 kts 254°
2026-04-25 17:49 32.52786 -126.83915 32083 ft 425 kts 254°
2026-04-25 17:50 32.51149 -126.90609 32087 ft 426 kts 254°
2026-04-25 17:50 32.49497 -126.97346 32084 ft 426 kts 254°
2026-04-25 17:51 32.47841 -127.04087 32085 ft 426 kts 254°
2026-04-25 17:51 32.46181 -127.10821 32085 ft 426 kts 254°
2026-04-25 17:52 32.44514 -127.17570 32113 ft 429 kts 254°
2026-04-25 17:52 32.42829 -127.24377 32429 ft 430 kts 254°
2026-04-25 17:52 32.41986 -127.27774 32693 ft 429 kts 254°
2026-04-25 17:53 32.41146 -127.31154 32909 ft 428 kts 254°
2026-04-25 17:53 32.40316 -127.34491 33098 ft 427 kts 254°
2026-04-25 17:53 32.39477 -127.37858 33356 ft 425 kts 254°
2026-04-25 17:53 32.38643 -127.41204 33663 ft 423 kts 254°
2026-04-25 17:54 32.37813 -127.44525 33957 ft 420 kts 254°
2026-04-25 17:54 32.36988 -127.47829 34089 ft 419 kts 254°
2026-04-25 17:54 32.36157 -127.51146 34088 ft 421 kts 254°
2026-04-25 17:55 32.34489 -127.57800 34088 ft 421 kts 254°
2026-04-25 17:55 32.32822 -127.64432 34095 ft 421 kts 254°
2026-04-25 17:56 32.31151 -127.71064 34095 ft 420 kts 254°
2026-04-25 17:56 32.29480 -127.77681 34094 ft 420 kts 254°
2026-04-25 17:57 32.27802 -127.84306 34097 ft 420 kts 254°
2026-04-25 17:57 32.26135 -127.90873 34100 ft 420 kts 254°